Location: Limoges
(45.8354°N, 1.2645°E)
Time: 10:56:38
(UTC+01:00)

ISS - Pass Details

Date: 05 December 2023
Orbit: 414 x 422 km, 51.6° (Epoch: 26 February)

Event Time Altitude Azimuth Distance (km) Brightness Sun altitude
Rises 18:01:23 0° 296° (WNW) 2,413 0.8 -8.6°
Reaches altitude 10° 18:03:32 10° 291° (WNW) 1,547 -0.2 -9.0°
Maximum altitude 18:06:54 49° 215° (SW) 571 -2.7 -9.5°
Drops below altitude 10° 18:10:18 10° 139° (SE) 1,554 -1.1 -10.1°
Enters shadow 18:13:51 -5° 133° (SE) 2,994 0.3 -10.6°
